Theta_e
337 333 329 328 328 327 326 325 326 327 327 326 324 322 320 321 323 323 323 324 326 328 328 327 325 323 324 335 334 335 333 333
336 336 331 331 330 329 328 327 327 327 327 326 324 323 321 320 321 322 324 324 324 326 326 323 320 320 321 330 333 334 335 334
340 339 335 332 331 331 330 328 327 327 327 327 326 329 325 323 324 322 322 323 323 323 321 319 319 320 321 325 328 330 332 335
339 338 337 333 333 333 333 332 331 332 330 329 330 330 329 331 323 322 321 321 320 319 319 319 321 322 323 326 327 331 334 335
340 339 336 336 337 336 336 339 338 335 330 328 328 328 327 328 327 324 323 321 321 320 320 322 321 323 327 328 326 330 336 336
340 339 337 337 337 337 337 337 338 336 333 329 328 330 329 329 330 325 322 323 321 320 321 321 323 326 330 329 328 329 335 336
340 340 338 339 339 338 338 338 337 337 333 331 329 330 328 328 327 323 324 321 320 320 321 324 328 331 332 332 332 329 330 336
340 340 340 339 339 339 338 338 338 337 334 331 329 326 325 327 325 325 322 320 320 320 321 324 329 332 333 334 333 329 330 332
341 339 340 339 340 340 339 339 338 336 334 333 330 328 325 324 325 326 323 320 320 320 322 325 330 332 335 335 335 330 328 329
341 342 340 339 340 340 339 339 337 336 335 333 332 329 327 325 325 324 323 321 321 321 323 328 332 336 337 338 338 335 330 329
340 341 342 341 340 340 339 339 337 337 336 334 332 331 328 327 327 324 323 323 322 322 323 330 334 336 337 338 339 337 336 332
339 340 340 341 340 339 339 338 337 337 338 335 333 332 329 328 328 326 324 328 330 328 327 326 334 337 336 338 339 337 337 336
339 339 339 339 339 338 338 337 336 336 339 337 335 332 331 329 330 327 326 330 333 332 330 329 332 336 338 338 333 334 336 335
339 338 339 338 337 337 337 336 335 336 338 337 337 334 332 330 329 330 330 333 333 333 331 332 335 335 338 339 339 331 324 328
339 339 339 338 337 337 336 336 336 336 337 337 337 336 334 332 329 330 331 333 335 333 334 334 335 335 336 338 339 340 324 317
339 339 339 338 337 337 337 337 337 336 337 337 337 336 336 334 332 329 330 331 334 335 334 335 335 336 336 336 333 333 334 323
339 339 339 339 339 338 337 336 335 335 337 337 337 337 337 335 333 331 331 331 332 334 335 335 335 336 337 336 333 331 328 325
340 339 339 339 338 337 336 336 335 334 335 336 337 337 337 336 335 333 332 332 332 332 334 336 336 336 336 336 335 333 330 323
342 340 340 339 338 338 336 336 335 334 334 334 334 335 336 336 335 335 334 333 333 333 333 335 337 336 336 336 336 335 333 326
341 341 341 340 339 338 338 336 336 335 334 334 334 334 334 334 335 335 335 335 334 334 334 335 335 337 336 335 335 335 333 332
Wind_Speed
38 38 39 38 36 33 32 32 31 30 29 27 25 24 24 23 23 22 22 21 19 17 15 13 12 11 11 12 13 11 10 9
39 37 38 38 35 32 32 30 30 29 27 26 25 24 23 22 22 21 21 20 19 16 15 13 12 11 11 12 12 10 8 8
33 36 38 39 38 35 31 30 29 28 26 25 25 22 23 22 20 21 20 19 18 16 14 13 13 12 12 11 9 7 7 8
33 35 36 37 36 37 34 31 29 26 27 27 24 23 22 19 20 19 19 18 17 15 14 13 13 13 13 12 9 8 9 10
34 36 38 36 32 34 32 27 26 25 28 28 25 24 22 20 19 18 18 18 16 16 14 12 12 14 13 12 10 9 10 10
34 34 38 36 32 33 30 29 27 27 27 28 27 24 23 20 18 19 18 17 16 15 14 14 13 13 13 11 9 8 8 10
38 35 36 35 33 30 29 28 29 26 29 29 27 24 24 23 20 20 18 18 16 15 14 14 13 12 10 9 8 8 8 10
38 37 35 35 33 32 32 29 28 27 31 32 30 27 26 24 23 20 20 19 17 16 14 14 11 11 10 8 7 9 9 11
37 40 36 36 33 32 30 29 28 27 30 34 32 30 28 26 24 21 20 20 18 16 15 14 12 10 9 9 7 9 10 10
32 35 37 37 34 33 30 28 29 28 28 35 35 33 30 28 25 24 22 21 19 17 15 13 13 11 9 7 6 8 9 10
35 34 37 37 34 32 29 28 30 28 31 37 36 35 33 29 25 24 25 22 21 19 17 14 13 12 10 6 4 7 7 8
33 33 33 34 30 28 27 27 33 32 35 33 34 37 36 32 26 25 26 22 21 21 18 18 13 12 8 6 4 7 7 7
36 36 35 35 33 32 31 34 35 34 36 32 37 40 38 36 28 27 27 23 23 24 21 18 15 12 8 7 6 5 6 7
38 39 37 39 36 35 32 32 32 32 32 32 39 41 41 38 35 30 29 24 23 25 24 17 16 18 10 11 4 3 7 6
39 41 41 41 37 32 27 26 21 28 31 35 38 41 44 43 42 35 32 29 26 29 28 23 19 17 18 8 3 5 7 4
39 40 42 40 39 35 36 34 32 35 32 31 33 37 43 41 42 42 38 36 31 32 33 30 21 19 17 20 8 7 3 4
38 40 40 41 42 40 39 35 31 26 29 29 33 35 39 42 47 46 42 40 38 38 35 32 33 24 22 18 12 7 8 4
35 38 42 42 44 44 42 41 32 27 29 31 32 33 36 38 42 45 44 40 40 41 38 39 34 29 26 23 24 14 10 7
34 38 39 42 44 44 44 43 39 36 33 33 31 33 34 41 45 43 43 43 39 37 39 38 38 34 32 29 27 27 19 12
34 37 39 40 42 46 46 43 39 40 37 35 36 36 41 37 42 41 41 39 38 37 38 38 37 39 37 34 29 28 29 28
Wind_Direction
166 170 173 172 171 169 168 166 164 163 162 161 160 158 159 160 159 157 156 154 154 151 149 146 142 137 122 115 132 120 115 108
169 171 174 175 172 173 170 169 167 166 166 165 163 162 162 162 161 160 160 158 157 157 156 151 144 138 132 124 126 128 127 121
172 172 175 177 174 175 174 172 171 169 168 168 166 163 165 165 166 164 162 161 159 160 159 153 148 143 142 138 132 140 140 139
178 176 177 178 175 175 176 175 172 171 171 172 171 170 169 167 168 168 167 165 163 163 161 156 151 147 145 144 143 138 138 143
182 179 181 180 178 176 176 175 174 177 178 178 177 174 173 171 170 173 173 172 168 167 166 163 159 152 149 146 140 137 140 143
182 183 182 182 183 182 180 179 180 179 183 184 181 178 178 178 177 177 178 179 176 173 170 167 160 158 153 151 151 147 155 150
185 183 185 183 184 183 182 183 183 185 187 188 187 185 184 183 185 183 183 183 181 179 174 171 166 164 159 154 158 164 159 158
183 185 187 186 185 186 187 185 185 188 193 193 195 194 191 188 189 189 189 188 187 184 181 181 174 172 171 172 166 159 150 162
189 185 187 190 188 189 189 189 187 191 198 198 199 200 199 195 192 192 192 192 191 189 187 185 182 178 173 171 173 170 163 160
197 190 188 189 191 190 189 193 191 195 199 202 203 203 203 201 197 197 194 194 194 194 192 188 185 181 181 188 194 196 190 183
195 195 192 189 190 190 191 193 197 198 202 207 204 206 206 205 203 200 197 196 197 198 198 193 193 192 188 186 209 213 213 208
195 195 194 190 189 190 195 197 204 204 207 208 206 207 208 208 208 205 201 197 198 201 200 203 199 200 189 160 138 185 199 197
192 193 193 187 189 189 193 199 202 206 210 209 209 210 209 209 208 208 205 201 198 201 199 199 200 196 173 143 97 130 173 173
191 194 193 192 194 198 201 200 207 206 209 210 211 212 211 210 210 208 206 203 203 199 195 188 197 196 192 177 170 128 80 114
192 192 194 194 195 196 201 200 207 208 210 209 210 212 215 214 214 212 210 207 205 205 202 197 194 201 201 189 167 209 139 64
195 195 195 194 192 194 196 196 200 207 208 205 207 212 215 216 217 217 216 213 210 211 210 206 198 200 202 212 197 152 167 155
199 196 196 193 195 197 198 206 211 208 204 202 206 212 215 217 219 219 219 218 216 217 214 210 210 205 204 198 203 177 149 147
197 198 199 196 195 199 202 207 206 205 200 201 203 208 213 215 218 218 218 219 217 218 218 218 210 209 212 210 205 198 186 156
198 198 203 198 198 202 206 209 205 206 203 201 202 205 209 214 214 215 216 218 218 216 218 217 213 208 208 211 212 208 213 183
199 200 202 200 200 205 208 210 209 209 208 207 207 208 213 212 213 215 216 217 217 216 219 219 214 215 212 210 211 213 217 211